STARLINK-35238

Last updated on Mon Oct 20 2025 00:02:07 GMT+0000 (Coordinated Universal Time)

1 65841U 25221U 25292.25002315 -.01550346 00000+0 -28474-1 0 9995 2 65841 53.1603 27.7878 0001012 78.8333 278.6441 15.51580119 4438
UTC large
Height (km)
Speed (km/s)
/
Latitude / Longitude
Inclination (degrees)
Orbital Period (minutes)
Azimuth
Elevation
Range (km)
Doppler Factor

Next 0 passes for location: London (51.5072 / 0.1276)

Sorry there are no passes over London.